{"data":{"norad_id":53172,"intl_designator":"2022-083AS","name":"STARLINK-4299","alt_names":[],"object_type":"PAYLOAD","status":"ACTIVE","operator":null,"country":"US","launch_date":"2022-07-17","launch_site_code":"AFETR","launch_vehicle":null,"mission":null,"orbit_class":"UNKNOWN","rcs_meters":null,"size_class":null,"mass_kg":null,"dimensions":null,"purposes":["comms"],"wikipedia_slug":null,"has_3d_model":false,"image_url":null,"decayed_at":null,"tle_current":{"epoch":"2026-09-19T19:14:41.104896Z","epoch_age_seconds":132497,"freshness":"FRESH","line1":"1 53172U 22083AS  26262.80186464  .00000009  00000+0  12049-4 0  9996","line2":"2 53172  53.1621 355.8509 0001104  77.8071 282.3054 15.31708151230886","mean_motion":15.31708151,"eccentricity":0.0001104,"inclination_deg":53.1621,"raan_deg":355.8509,"arg_perigee_deg":77.8071,"mean_anomaly_deg":282.3054,"bstar":1.2049e-5,"rev_number":23088,"period_min":94.012687668984,"perigee_km":469.95958428872,"apogee_km":471.47181096436,"semimajor_km":6848.8526976265,"source":"CELESTRAK","updated_at":"2026-09-20T09:00:40.186085Z"}}}